OE3TEC-15 Weather Reports


Display with metric or nautical units.
time (UTC)temp
F
wind
direction
speed
MPH
gust
MPH
rain 1hr
in
rain 24hr
in
rain mn
in
humidity
%
barometer
mb
20260507041951 55 244 6.0 13.0 0.00 0.00 0.00 73 1011.8
20260507040942 55 241 6.0 9.0 0.00 0.00 0.00 73 1011.4
20260507035935 55 241 4.0 7.0 0.00 0.00 0.00 73 1011.4
20260507034928 55 238 4.0 7.0 0.00 0.00 0.00 73 1011.3
20260507033921 56 247 5.0 9.0 0.00 0.00 0.00 72 1011.4
20260507032913 56 243 7.0 11.0 0.00 0.00 0.00 72 1011.2
20260507031906 56 241 6.0 11.0 0.00 0.00 0.00 72 1011.3
20260507030857 57 242 6.0 10.0 0.00 0.00 0.00 71 1011.1
20260507025851 57 240 5.0 8.0 0.00 0.00 0.00 71 1010.9
20260507024844 57 243 4.0 8.0 0.00 0.00 0.00 71 1010.8
20260507023838 57 239 4.0 7.0 0.00 0.00 0.00 71 1010.7
20260507022830 57 240 5.0 11.0 0.00 0.00 0.00 71 1010.7
20260507021823 58 241 7.0 11.0 0.00 0.00 0.00 71 1010.8
20260507020816 58 239 7.0 11.0 0.00 0.00 0.00 71 1010.6
20260507015808 58 243 7.0 11.0 0.00 0.00 0.00 70 1010.7
20260507014801 58 245 7.0 11.0 0.00 0.00 0.00 70 1010.5
20260507013754 58 241 7.0 11.0 0.00 0.00 0.00 71 1010.6
20260507012746 58 238 5.0 10.0 0.00 0.00 0.00 72 1010.5
20260507011738 58 241 4.0 7.0 0.00 0.00 0.00 72 1010.2
20260507010731 58 244 5.0 10.0 0.00 0.00 0.00 72 1010.2
20260507005724 59 241 9.0 14.0 0.00 0.00 0.00 71 1010.2
20260507004718 59 242 7.0 16.0 0.00 0.00 0.00 71 1010.0
20260507003710 60 245 5.0 10.0 0.00 0.00 0.00 70 1010.1
20260507002703 58 210 0.0 3.0 0.00 0.00 0.00 72 1009.9
20260507001703 59 233 2.0 3.0 0.00 0.00 0.00 70 1009.6
20260507000657 60 239 4.0 7.0 0.00 0.00 0.00 68 1009.6
20260506235650 60 247 5.0 8.0 0.00 0.00 0.00 68 1009.6
20260506234641 60 246 5.0 9.0 0.00 0.00 0.00 67 1009.4
20260506233635 60 249 5.0 10.0 0.00 0.00 0.00 67 1009.3
20260506232628 60 238 4.0 6.0 0.00 0.00 0.00 67 1009.1
20260506231622 60 227 1.0 3.0 0.00 0.00 0.00 65 1009.0
20260506230614 61 221 1.0 3.0 0.00 0.00 0.00 63 1008.8
20260506225607 62 235 3.0 8.0 0.00 0.00 0.00 62 1008.7
20260506224600 62 239 5.0 8.0 0.00 0.00 0.00 63 1008.7
20260506223552 62 240 4.0 6.0 0.00 0.00 0.00 63 1008.4
20260506222545 63 238 4.0 8.0 0.00 0.00 0.00 62 1007.8
20260506221545 63 246 5.0 13.0 0.00 0.00 0.00 61 1007.8
20260506220539 63 245 5.0 13.0 0.00 0.00 0.00 61 1007.6
20260506215532 63 226 2.0 6.0 0.00 0.00 0.00 61 1007.3
20260506214526 64 243 4.0 8.0 0.00 0.00 0.00 58 1007.2
20260506213518 64 243 5.0 15.0 0.00 0.00 0.00 57 1007.1
20260506212511 63 207 1.0 4.0 0.00 0.00 0.00 60 1006.4
20260506211503 64 154 1.0 6.0 0.00 0.00 0.00 58 1006.2
20260506210456 65 126 2.0 6.0 0.00 0.00 0.00 58 1006.2
20260506205449 65 128 2.0 7.0 0.00 0.00 0.00 57 1006.2
20260506204441 64 162 1.0 4.0 0.00 0.00 0.00 58 1006.0
20260506203434 63 145 1.0 4.0 0.00 0.00 0.00 60 1006.1
20260506202427 64 148 1.0 4.0 0.00 0.00 0.00 60 1005.9
20260506201419 65 99 2.0 8.0 0.00 0.00 0.00 57 1005.9
20260506200412 66 105 3.0 7.0 0.00 0.00 0.00 54 1005.4
20260506195406 67 77 4.0 8.0 0.00 0.00 0.00 54 1005.5
20260506194359 67 113 2.0 7.0 0.00 0.00 0.00 53 1005.4
20260506193352 68 110 2.0 7.0 0.00 0.00 0.00 52 1005.4
20260506192345 68 107 3.0 11.0 0.00 0.00 0.00 51 1004.7
20260506191336 68 121 2.0 8.0 0.00 0.00 0.00 51 1004.9
20260506190329 69 130 2.0 9.0 0.00 0.00 0.00 50 1004.7
20260506185322 69 143 2.0 9.0 0.00 0.00 0.00 49 1004.7
20260506184315 69 141 2.0 8.0 0.00 0.00 0.00 49 1004.9
20260506183308 70 122 2.0 8.0 0.00 0.00 0.00 49 1004.4
20260506182259 70 142 2.0 10.0 0.00 0.00 0.00 48 1004.2
20260506181252 70 124 3.0 7.0 0.00 0.00 0.00 48 1004.2
20260506180247 71 122 2.0 8.0 0.00 0.00 0.00 47 1004.0
20260506175240 72 141 3.0 8.0 0.00 0.00 0.00 47 1003.9
20260506174232 72 137 2.0 8.0 0.00 0.00 0.00 46 1003.7
20260506173225 72 124 2.0 6.0 0.00 0.00 0.00 46 1004.0
20260506172217 73 121 2.0 8.0 0.00 0.00 0.00 47 1004.1
20260506171210 73 123 3.0 10.0 0.00 0.00 0.00 46 1004.1
20260506170203 74 134 3.0 10.0 0.00 0.00 0.00 44 1004.1
20260506165155 74 133 3.0 11.0 0.00 0.00 0.00 43 1004.2
20260506164147 75 159 3.0 10.0 0.00 0.00 0.00 43 1004.1
20260506163140 75 162 3.0 10.0 0.00 0.00 0.00 42 1004.4
20260506162134 76 145 3.0 11.0 0.00 0.00 0.00 42 1004.3
20260506161128 76 149 3.0 11.0 0.00 0.00 0.00 41 1004.5
20260506160119 77 149 3.0 9.0 0.00 0.00 0.00 40 1004.4
20260506155112 78 121 3.0 15.0 0.00 0.00 0.00 39 1004.5
20260506154105 78 144 3.0 11.0 0.00 0.00 0.00 37 1004.2
20260506153058 79 121 3.0 8.0 0.00 0.00 0.00 37 1004.3
20260506152058 79 151 4.0 11.0 0.00 0.00 0.00 36 1004.4
20260506151051 79 110 5.0 11.0 0.00 0.00 0.00 36 1004.5
20260506150044 79 111 4.0 14.0 0.00 0.00 0.00 38 1004.6
20260506145038 79 91 6.0 14.0 0.00 0.00 0.00 38 1004.6
20260506144031 79 107 5.0 15.0 0.00 0.00 0.00 38 1004.8
20260506143024 78 117 5.0 14.0 0.00 0.00 0.00 38 1004.9
20260506142016 78 90 6.0 16.0 0.00 0.00 0.00 38 1005.0
20260506141008 78 113 6.0 16.0 0.00 0.00 0.00 37 1005.4
20260506140001 79 103 6.0 15.0 0.00 0.00 0.00 36 1005.2
20260506134954 79 112 6.0 17.0 0.00 0.00 0.00 37 1005.4
20260506133947 78 101 7.0 17.0 0.00 0.00 0.00 37 1005.5
20260506132939 77 94 6.0 16.0 0.00 0.00 0.00 39 1005.5
20260506131932 77 93 7.0 18.0 0.00 0.00 0.00 39 1006.1
20260506130924 77 91 7.0 17.0 0.00 0.00 0.00 40 1006.4
20260506125917 76 89 6.0 15.0 0.00 0.00 0.00 40 1006.5
20260506124911 75 103 6.0 15.0 0.00 0.00 0.00 41 1006.6
20260506123904 78 107 6.0 16.0 0.00 0.00 0.00 40 1006.6
20260506122856 78 113 5.0 14.0 0.00 0.00 0.00 39 1007.1
20260506121848 78 108 5.0 15.0 0.00 0.00 0.00 38 1006.9
20260506120842 77 100 6.0 17.0 0.00 0.00 0.00 41 1007.0
20260506115834 76 111 6.0 14.0 0.00 0.00 0.00 41 1007.2
20260506114827 76 92 7.0 17.0 0.00 0.00 0.00 40 1007.3
20260506113827 76 105 6.0 15.0 0.00 0.00 0.00 41 1007.3
20260506112823 75 84 6.0 13.0 0.00 0.00 0.00 43 1007.6
20260506111815 77 137 5.0 14.0 0.00 0.00 0.00 42 1007.6
20260506110808 76 122 4.0 13.0 0.00 0.00 0.00 44 1007.7
20260506105800 75 87 7.0 16.0 0.00 0.00 0.00 45 1007.8
20260506104753 75 112 5.0 14.0 0.00 0.00 0.00 44 1008.0
20260506103745 75 104 5.0 18.0 0.00 0.00 0.00 42 1008.0
20260506102738 75 96 6.0 14.0 0.00 0.00 0.00 44 1007.9
20260506101738 75 87 6.0 15.0 0.00 0.00 0.00 45 1008.3
20260506100732 75 88 6.0 16.0 0.00 0.00 0.00 43 1008.5
20260506095725 75 110 4.0 15.0 0.00 0.00 0.00 44 1008.6
20260506094717 74 97 5.0 10.0 0.00 0.00 0.00 45 1008.6
20260506093712 74 91 3.0 8.0 0.00 0.00 0.00 46 1008.8
20260506092704 73 96 4.0 11.0 0.00 0.00 0.00 48 1009.0
20260506091656 74 127 3.0 9.0 0.00 0.00 0.00 44 1008.9
20260506090649 74 116 2.0 7.0 0.00 0.00 0.00 44 1008.8
20260506085641 74 130 2.0 6.0 0.00 0.00 0.00 42 1008.8
20260506084634 73 143 2.0 7.0 0.00 0.00 0.00 44 1009.1
20260506083627 73 149 1.0 4.0 0.00 0.00 0.00 43 1009.1
20260506082619 72 166 1.0 3.0 0.00 0.00 0.00 46 1009.1
20260506081612 70 219 2.0 6.0 0.00 0.00 0.00 48 1009.2
20260506080604 69 239 4.0 8.0 0.00 0.00 0.00 50 1009.3
20260506072536 68 240 6.0 10.0 0.00 0.00 0.00 56 1009.7
20260506071528 68 230 4.0 9.0 0.00 0.00 0.00 55 1009.8
20260506070521 67 235 4.0 8.0 0.00 0.00 0.00 56 1009.9
20260506062452 64 217 2.0 8.0 0.00 0.00 0.00 66 1009.7
20260506061445 64 211 1.0 3.0 0.00 0.00 0.00 67 1009.9
20260506060436 64 209 1.0 2.0 0.00 0.00 0.00 68 1009.8
20260506051401 61 241 4.0 8.0 0.00 0.00 0.00 74 1009.8
20260506050355 60 246 5.0 9.0 0.00 0.00 0.00 76 1009.7
20260506044340 58 243 5.0 9.0 0.00 0.00 0.00 79 1009.4
20260506043333 59 240 6.0 10.0 0.00 0.00 0.00 78 1009.4